[Date Prev][Date Next][Thread Prev][Thread Next] - [Date Index][Thread Index][Author Index]

2 Line ISS Keps 11-15



ISS 
1 25544U 98067A   04320.36103250  .00025823  00000-0  20537-3 0  1441
2 25544  51.6359 274.2981 0008506 359.5621 137.8027 15.71001769342064
----
Via the sarex mailing list at AMSAT.ORG courtesy of AMSAT-NA.
To unsubscribe, send "unsubscribe sarex" to Majordomo@amsat.org



AMSAT Top AMSAT Home